Погода в Бахмуте

Россия / Республика Башкортостан     52°39′29″N   55°54′32″E
темп.,
°C
ветер,
м/с
пор.,
м/с
влажн.,
%
обл.,
%
осадки,
мм/ч
давл.,
гПа
погр.,
м
17 апреля, сб
сб1723:00+12в225980 0.0 102012
02:00+9в487438 0.0 1021151
05:00+7в4119020 0.0 1022219
08:00+8в410865 0.0 1022264
11:00+13вюв566582 0.0 1021495
14:00+17вюв33485 0.0 10211121
17:00+18вюв22405 0.0 10201578
20:00+14св11530 0.0 101910
18 апреля, вс
вс1823:00+11ссв11660 0.0 102011
02:00+9с22860 0.0 102020
05:00+6ссв23890 0.0 102034
08:00+7с34814 0.0 1020131
11:00+12с45560 0.0 1019466
14:00+14ссв56360 0.0 1018857
17:00+15с56301 0.0 10181071
20:00+11с484855 0.0 1019210
19 апреля, пн
пн1923:00+8ссв38655 0.0 1020163
02:00+6в8147087 0.0 1022657
05:00+4в8136199 0.0 1024651
08:00+3в81360100 0.0 1026671
11:00+3вюв81259100 0.1 1027756
14:00+5вюв7949100 0.0 10271062
17:00+6в6846100 0.0 10281372
20:00+4в61045100 0.0 1029986
20 апреля, вт
вт2023:00+2в61243100 0.0 1031779
02:000вюв61246100 0.0 1032715
05:00−1вюв6134528 0.0 1033649
08:00−1вюв712380 0.0 1034741
11:00+4вюв79290 0.0 10341036
14:00+7вюв68250 0.0 10321338
17:00+8вюв67260 0.0 10311317
20:00+5юв48400 0.0 1032231
21 апреля, ср
ср2123:00+2юв3104792 0.0 1033283
02:00+1вюв375098 0.0 1034178
05:000вюв345221 0.0 103464
08:00+2юв39415 0.0 1034451
11:00+7юв683020 0.0 1033833
14:00+11ююв682668 0.0 10321167
17:00+12ююв682712 0.0 10311226
20:00+9юв374145 0.0 1032134